Theta_e
305 305 308 309 309 310 310 309 308 303 304 304 304 303 302 303 300 301 303 305 306 308 302 302 301 301 301 298 298 297 301 301 301 300 301 297 298 297 296 297 297 298 298 300 302
302 304 304 303 306 309 308 302 301 301 302 302 302 303 304 306 300 298 301 305 306 306 302 302 300 300 298 299 298 296 297 299 297 297 298 298 298 299 299 298 299 299 299 301 301
305 305 306 306 304 303 302 300 300 300 300 300 300 300 301 304 298 299 300 302 302 302 302 302 301 300 300 299 299 298 298 298 299 298 299 300 299 298 299 299 296 298 298 298 300
311 313 313 310 306 304 302 298 298 299 298 299 300 301 302 302 301 299 299 301 301 302 302 302 299 300 300 300 301 299 301 300 298 301 300 300 300 300 298 299 299 296 298 298 298
314 314 314 314 313 308 304 300 298 297 298 298 298 301 301 297 299 298 299 300 301 302 301 301 300 300 300 301 301 301 301 300 301 301 300 300 300 299 298 297 296 296 297 296 296
314 314 314 314 314 310 307 305 299 297 297 297 299 299 299 297 299 298 300 301 301 302 301 301 301 300 300 302 301 300 301 301 301 301 301 301 300 299 298 297 297 298 298 297 296
314 315 315 315 315 311 310 308 301 298 296 298 300 301 296 296 298 299 300 301 301 301 301 301 302 301 301 302 301 301 301 299 301 301 301 299 297 298 297 298 297 297 297 297 296
315 316 316 316 315 314 312 309 302 299 297 298 299 298 296 297 298 299 301 300 302 302 301 302 302 301 301 300 298 297 297 296 299 300 300 299 297 298 297 297 297 296 295 295 295
316 317 316 316 316 314 312 309 303 299 299 297 298 297 296 297 297 298 300 300 301 302 301 302 301 298 299 300 297 295 295 299 298 299 300 301 299 297 297 297 296 294 293 294 294
316 317 317 316 315 314 313 309 305 302 300 298 297 299 296 295 296 299 300 301 301 301 301 301 297 295 294 295 296 294 296 298 298 298 299 299 299 298 297 295 294 293 293 293 294
317 317 316 315 314 312 311 307 305 305 300 295 294 296 295 296 298 299 300 300 299 298 299 299 297 296 298 298 296 297 299 299 297 298 298 298 297 297 297 293 293 292 292 293 293
317 316 315 315 313 311 309 297 297 298 301 298 294 295 296 296 297 297 300 298 295 296 297 295 296 298 298 299 300 299 294 294 296 297 298 296 297 296 295 294 295 295 293 292 293
317 317 315 314 311 309 300 297 297 297 299 300 294 294 294 297 298 298 299 298 294 294 293 296 301 299 299 300 299 299 295 293 298 298 295 294 294 294 295 296 296 294 293 292 292
317 315 314 311 310 305 299 297 297 297 298 303 295 295 296 296 299 298 298 299 298 294 297 296 300 300 300 300 298 295 297 299 298 291 291 294 293 295 296 295 296 295 291 291 289
311 310 311 309 309 303 300 297 297 299 306 298 295 294 295 298 298 298 298 299 301 298 293 297 301 300 299 300 297 297 297 298 294 285 291 289 290 294 295 297 295 295 292 290 289
309 310 310 308 306 302 300 299 298 304 303 298 294 295 297 297 297 297 299 297 297 299 298 294 297 298 298 297 297 294 291 289 287 282 287 285 288 294 294 294 296 295 293 291 289
309 310 309 307 304 303 303 300 302 302 298 299 296 296 296 297 298 297 297 298 298 295 292 293 297 296 296 298 295 292 285 287 289 286 291 278 290 295 293 292 293 293 291 291 288
309 309 307 304 303 303 303 298 298 293 293 301 295 298 299 295 296 295 296 297 296 293 286 289 294 292 296 296 291 294 287 288 286 288 287 280 290 294 291 291 291 290 289 289 288
309 308 306 303 303 303 301 299 300 296 304 301 302 298 296 297 294 293 296 295 298 292 293 290 291 294 296 297 293 290 291 287 282 276 283 285 287 290 291 286 290 290 290 289 288
309 306 303 302 303 304 301 305 299 302 296 299 304 301 296 293 299 291 296 296 299 295 289 291 291 288 293 295 292 289 290 290 284 286 285 285 279 293 288 284 286 287 285 286 287
307 304 301 301 303 301 303 297 300 303 296 298 302 297 299 295 294 293 297 297 297 295 292 286 286 289 294 292 292 294 288 286 285 288 287 285 291 286 286 283 283 284 284 283 283
305 304 298 301 302 300 306 303 301 300 295 297 297 300 298 297 295 291 296 296 294 292 295 293 290 288 291 292 292 290 287 291 290 286 284 288 294 290 283 276 272 282 284 283 281
301 301 297 299 304 303 302 303 296 299 296 296 296 298 295 291 296 296 297 297 295 295 295 295 288 288 296 293 291 292 292 291 288 291 288 290 296 284 274 277 280 280 283 283 280
299 303 298 296 298 302 303 303 303 296 297 296 297 295 295 294 294 297 298 296 296 295 297 296 294 292 299 295 286 292 293 294 293 290 295 295 297 298 298 296 292 286 280 279 279
301 302 296 301 301 301 302 303 300 303 296 295 293 295 295 297 294 291 295 296 295 297 297 296 292 292 292 290 286 291 290 293 294 293 294 298 294 297 296 296 294 282 281 282 279
299 298 297 297 298 300 302 304 303 303 300 300 294 297 295 294 300 300 296 296 296 295 295 293 287 285 284 292 291 290 292 293 293 293 294 294 294 295 294 292 286 284 279 280 279
298 300 300 301 299 299 301 302 302 300 299 300 296 298 296 296 296 297 295 294 295 296 296 293 288 286 289 285 284 291 291 293 287 286 289 289 293 293 291 286 281 282 276 280 280
Wind_Speed
15 15 15 15 15 15 15 14 12 11 10 8 7 6 5 5 10 12 9 13 13 16 13 6 5 5 6 4 5 2 4 2 5 5 2 2 2 1 2 3 4 1 3 4 7
16 16 17 18 18 16 15 13 12 11 10 8 8 7 7 5 4 14 12 15 14 13 8 8 4 5 4 4 4 5 4 5 2 3 2 1 0 2 3 3 3 1 2 5 7
18 19 19 20 20 19 16 12 11 10 9 7 8 9 8 3 1 4 17 16 12 10 2 2 2 3 5 4 5 1 3 4 3 3 2 1 2 3 2 4 8 5 6 5 6
17 19 21 23 22 21 19 13 10 10 9 8 9 11 4 2 1 8 18 16 11 10 4 4 5 4 4 3 2 4 2 2 3 2 2 2 0 3 6 6 2 8 3 2 5
17 19 21 23 24 23 22 15 10 9 9 8 10 10 3 5 2 11 17 13 9 8 8 4 4 3 5 3 2 3 1 1 1 3 4 1 5 5 8 10 8 7 6 7 7
16 18 21 23 25 22 23 20 10 9 9 8 8 6 2 3 4 12 15 12 14 12 9 7 3 2 6 3 3 1 1 2 1 1 1 2 3 3 5 3 5 3 6 7 7
15 17 20 22 24 23 25 22 9 7 8 6 7 5 6 2 5 12 12 10 10 9 3 6 3 4 4 3 1 1 2 1 4 3 3 3 5 7 5 2 5 6 7 7 7
15 17 19 21 23 24 24 22 7 4 6 5 5 3 2 3 5 12 12 5 6 6 4 5 5 5 4 4 5 4 4 3 2 4 2 5 9 4 5 3 9 10 7 6 7
15 17 19 22 23 25 24 20 6 4 6 5 2 2 1 3 4 10 10 6 6 4 6 3 4 4 4 4 4 7 1 2 7 5 2 1 9 7 3 6 10 9 7 7 6
14 16 18 20 23 26 21 14 5 2 5 1 3 3 4 4 6 8 8 7 4 3 3 6 5 4 4 5 2 2 2 2 5 2 2 6 19 20 11 6 10 11 7 7 7
13 15 17 19 22 21 21 4 7 4 10 3 4 2 3 9 3 7 8 5 4 7 4 4 5 1 2 3 4 5 1 3 4 3 5 6 14 23 17 9 9 9 8 6 7
12 12 17 17 19 15 12 7 3 1 5 2 1 1 1 4 3 7 10 4 5 2 4 6 1 2 5 4 4 4 3 5 6 2 3 7 21 21 12 6 6 5 5 6 4
11 12 15 14 14 10 14 7 2 1 0 3 1 1 2 4 2 6 5 2 5 4 3 4 1 3 2 2 3 1 4 2 4 8 2 7 9 5 3 3 3 2 3 4 5
10 12 11 12 3 8 4 5 2 1 4 3 2 2 2 1 3 2 4 3 4 2 2 1 3 2 3 0 4 1 3 0 2 4 3 6 5 6 4 8 5 5 6 7 7
10 11 6 10 5 4 4 5 2 0 4 2 2 2 3 3 2 3 3 1 2 1 4 4 2 1 1 1 3 1 3 2 3 4 4 4 2 8 4 6 7 6 8 9 8
8 6 5 4 4 4 6 5 1 5 5 3 3 3 4 5 4 5 2 4 3 3 2 3 2 0 1 3 2 4 4 5 4 3 3 3 3 6 4 4 3 2 5 8 8
5 2 2 3 2 5 6 2 5 4 3 5 3 4 1 4 3 5 3 2 1 4 4 4 1 3 0 2 3 5 6 4 5 4 5 2 1 12 7 4 5 9 10 8 8
3 1 2 3 3 5 2 5 3 2 5 2 2 2 2 5 2 5 3 3 2 4 3 3 6 1 4 2 4 3 5 5 5 2 5 3 6 6 6 6 7 8 9 8 9
2 2 1 3 3 3 4 3 7 6 1 0 2 5 4 1 1 4 1 3 2 4 5 3 4 1 4 2 3 2 1 3 6 2 3 2 8 11 4 6 5 7 6 10 11
2 2 1 3 1 3 4 5 3 2 0 0 3 3 3 3 2 4 1 2 3 2 3 3 3 1 2 2 5 4 3 4 3 2 5 5 6 8 7 6 6 6 7 9 9
1 2 4 1 2 3 2 6 4 4 2 3 3 2 5 3 3 1 3 2 2 3 4 4 3 5 2 4 7 2 1 4 4 3 4 3 6 8 11 8 7 8 8 9 11
1 1 5 1 2 0 1 2 2 4 2 3 2 5 7 5 3 2 5 5 5 5 4 3 3 3 8 1 3 4 6 4 4 5 2 2 10 3 8 6 5 10 10 10 9
0 1 4 3 3 2 1 3 2 2 3 3 3 5 2 4 1 5 3 0 6 5 5 5 1 3 6 3 3 3 4 3 3 2 7 4 10 3 3 5 8 10 11 11 8
1 2 2 2 0 4 3 5 6 3 3 3 1 2 3 2 2 2 3 2 5 3 4 5 3 6 6 5 3 3 4 6 5 3 6 16 30 22 27 19 16 10 9 9 9
1 3 3 2 3 5 3 2 3 5 2 2 3 6 6 4 1 5 5 2 3 4 3 3 5 2 5 7 5 10 8 15 13 11 10 32 14 29 21 20 17 7 9 10 11
2 1 1 1 2 4 8 7 15 12 7 4 5 3 7 6 8 7 4 4 5 2 6 4 3 2 5 7 4 8 16 18 17 17 18 25 28 32 27 16 11 12 8 11 10
3 3 1 3 4 6 6 10 7 6 9 8 11 5 7 15 9 3 4 2 4 7 8 5 5 2 5 4 7 9 10 7 4 5 6 8 18 14 13 8 7 11 7 12 10
Wind_Direction
28 27 21 16 12 5 359 357 359 5 2 7 6 8 11 12 36 65 41 343 328 332 342 341 27 43 56 59 36 113 65 163 188 150 195 16 68 71 283 269 337 342 149 153 165
30 24 21 22 16 6 359 1 4 5 7 15 20 17 8 358 15 53 1 345 337 339 352 21 16 22 53 34 17 73 110 191 163 161 174 358 108 322 12 350 288 203 115 149 173
30 26 22 20 19 13 5 4 3 2 2 3 359 351 347 324 47 347 353 350 347 341 320 23 61 59 65 35 8 47 140 154 199 161 139 216 255 187 186 260 229 210 186 190 198
27 26 22 18 16 15 9 1 358 357 356 356 355 347 356 29 114 350 351 352 356 357 121 53 34 53 70 86 358 95 56 76 180 140 142 221 228 254 195 234 163 233 274 242 215
23 20 17 14 11 11 9 1 353 352 346 343 345 353 1 47 23 347 351 1 20 36 56 63 63 112 109 106 84 85 159 305 244 246 230 219 248 241 247 250 275 272 249 250 226
14 12 9 8 6 5 4 358 346 348 347 343 344 355 20 70 346 353 355 17 29 39 39 44 114 149 98 74 74 138 182 270 279 344 56 267 267 29 272 193 211 237 269 264 226
5 4 2 1 2 360 357 355 342 346 352 0 3 16 53 145 349 359 5 20 20 30 35 44 64 57 127 106 130 84 127 21 29 4 16 330 288 230 245 34 297 291 290 252 234
354 355 354 353 355 356 350 351 345 334 351 353 7 23 96 349 358 9 16 29 24 34 53 36 67 96 57 117 34 45 51 28 352 358 9 66 274 241 195 222 282 289 282 263 231
344 345 347 348 347 349 348 347 350 332 349 357 3 56 86 349 17 2 5 355 342 35 39 52 63 78 35 73 24 13 188 330 323 38 327 117 276 234 171 296 278 280 265 263 218
333 337 342 345 349 346 347 338 353 4 351 19 55 34 24 325 324 343 356 0 25 331 19 40 45 69 36 63 230 254 22 281 259 327 350 268 265 276 279 243 255 272 263 241 210
323 332 337 343 347 351 354 351 14 0 38 94 273 288 337 329 327 4 353 347 6 50 41 9 64 98 130 85 105 107 114 268 261 317 320 263 276 279 291 276 262 256 255 223 199
309 322 324 334 343 356 15 69 96 279 319 353 297 289 325 346 342 356 4 58 56 64 342 18 121 173 120 93 90 78 82 285 294 288 322 306 288 287 283 248 225 249 242 215 169
309 311 317 331 340 3 56 66 47 20 86 316 9 4 306 11 44 326 23 71 78 52 19 144 118 131 102 85 79 185 168 243 262 327 285 320 292 318 278 278 271 226 202 188 214
314 317 326 337 359 3 53 21 14 55 59 297 337 7 347 14 36 350 24 98 45 175 181 173 324 112 59 242 122 294 179 296 348 43 277 38 282 302 313 304 278 263 225 227 236
318 328 10 10 354 36 346 345 343 272 357 297 338 323 324 61 339 17 10 10 116 149 87 262 145 136 107 245 139 175 35 46 89 100 24 342 56 272 325 298 281 273 242 237 238
323 353 4 18 41 15 342 335 315 39 261 335 305 346 23 12 9 321 24 60 137 113 73 216 304 294 222 62 55 107 69 46 65 95 12 247 127 276 256 218 291 272 282 257 249
325 334 15 30 32 356 344 11 29 134 351 303 341 31 93 331 359 24 7 349 188 37 351 337 339 338 351 87 35 67 51 332 348 5 231 315 320 246 266 249 237 283 292 278 260
312 303 57 64 17 357 4 52 105 240 234 326 348 2 43 5 28 333 340 323 81 84 96 121 325 58 347 98 171 62 136 152 248 278 276 356 239 253 233 280 271 271 271 288 279
205 276 318 0 347 2 64 83 208 205 219 233 3 59 318 358 163 17 249 221 212 166 165 122 288 350 29 68 83 237 69 161 99 92 24 256 288 290 274 294 269 275 282 277 277
230 200 295 342 11 64 77 250 234 226 236 155 179 143 212 269 356 56 325 209 168 141 132 194 351 264 249 99 32 137 145 48 8 336 303 286 278 238 291 280 301 306 285 291 293
208 18 340 353 101 55 204 233 289 258 239 188 237 213 216 219 173 238 252 266 132 121 90 126 100 287 58 197 178 123 3 43 120 141 194 304 258 217 232 220 263 285 281 281 290
59 329 351 128 73 338 239 228 302 263 213 247 253 216 198 174 169 225 238 223 172 151 152 186 141 240 224 108 133 165 183 161 133 254 212 193 269 228 237 241 224 274 277 280 269
87 284 16 16 227 218 211 274 242 272 240 189 225 222 93 196 308 200 219 222 161 156 165 180 303 350 335 24 2 218 200 173 115 89 195 181 271 286 276 277 239 258 283 284 283
68 307 342 53 250 164 218 250 239 188 264 237 285 107 135 264 249 238 246 201 179 198 180 159 182 191 218 212 142 207 203 208 167 159 259 233 269 270 283 295 298 290 258 276 291
188 243 196 222 231 207 179 281 238 247 192 249 316 213 175 225 255 230 225 212 175 217 152 165 223 247 256 247 205 239 228 238 215 218 221 272 254 276 284 289 295 278 296 309 303
262 218 320 259 219 189 208 215 243 250 169 218 215 226 199 206 204 206 166 196 206 151 159 185 253 121 283 274 286 271 245 242 236 245 253 261 276 267 276 294 288 280 282 286 284
257 280 281 218 217 215 216 223 242 202 228 206 203 168 205 233 235 232 186 182 183 170 184 167 153 112 265 339 327 296 247 189 185 214 178 208 242 280 277 270 261 283 247 268 269